Date String (YYYY-MM-DD hh:mm:ss) UTC,Instrument flags,Ambient pressure (hPa),Sample flow (lpm),Bypass flow (lpm),Sample temperature (°C),Ambient temperature (°C),ASC tube jacket temperature (°C),LED temperature (°C),Box temperature (°C),Sample RH (%),Span deviation,Mass concentration (μg/m³),Mass concentration (μg/m³),Mass concentration (μg/m³)
DateTimeUTC,F1_M11,P_M11,Q1_M11,Q2_M11,T1_M11,T2_M11,T3_M11,T4_M11,T5_M11,U1_M11,ZSPAN_M11,X0_M11,X2_M11,X1_M11
2022-07-17 00:00:00,,0829.5,4.99,0.00,29.3,27.2,00.0,38.1,31.1,32.3,0000.0,0008.64,0005.34,0004.76
2022-07-17 00:01:00,,0829.4,5.00,0.00,29.3,27.4,00.0,38.1,31.2,31.0,0000.0,0008.68,0005.34,0004.76
2022-07-17 00:02:00,,0829.4,4.99,0.00,29.4,27.7,00.0,38.1,31.2,30.8,0000.0,0008.74,0005.35,0004.75
2022-07-17 00:03:00,,0829.4,5.00,0.00,29.4,27.9,00.0,38.1,31.3,29.9,0000.0,0008.57,0005.29,0004.74
2022-07-17 00:04:00,,0829.4,4.99,0.00,29.4,28.1,00.0,38.1,31.3,29.9,0000.0,0008.48,0005.26,0004.73
2022-07-17 00:05:00,,0829.5,5.00,0.00,29.4,28.2,00.0,38.1,31.4,30.2,0000.0,0008.46,0005.25,0004.73
2022-07-17 00:06:00,,0829.5,5.00,0.00,29.5,28.4,00.0,38.1,31.5,30.1,0000.0,0008.43,0005.23,0004.72
2022-07-17 00:07:00,,0829.5,5.00,0.00,29.5,28.1,00.0,38.1,31.5,30.0,0000.0,0008.22,0005.19,0004.69
2022-07-17 00:08:00,,0829.4,4.99,0.00,29.5,27.4,00.0,38.0,31.4,30.0,0000.0,0008.08,0005.15,0004.66
2022-07-17 00:09:00,,0829.5,5.00,0.00,29.5,27.1,00.0,38.0,31.3,28.5,0000.0,0007.96,0005.11,0004.64
2022-07-17 00:10:00,,0829.5,4.99,0.00,29.4,27.1,00.0,38.0,31.2,26.1,0000.0,0008.11,0005.12,0004.64
2022-07-17 00:11:00,,0829.5,5.00,0.00,29.3,27.2,00.0,38.0,31.1,25.6,0000.0,0008.24,0005.16,0004.65
2022-07-17 00:12:00,,0829.5,5.00,0.00,29.3,27.4,00.0,38.0,31.1,25.2,0000.0,0008.29,0005.20,0004.66
2022-07-17 00:13:00,,0829.5,5.01,0.00,29.3,27.6,00.0,38.0,31.2,26.2,0000.0,0008.24,0005.21,0004.68
2022-07-17 00:14:00,,0829.5,4.99,0.00,29.3,27.8,00.0,38.1,31.2,26.7,0000.0,0008.42,0005.30,0004.71
2022-07-17 00:15:00,,0829.5,5.00,0.00,29.4,28.0,00.0,38.1,31.3,26.9,0000.0,0008.61,0005.37,0004.73
2022-07-17 00:16:00,,0829.5,4.99,0.00,29.4,28.2,00.0,38.1,31.4,27.8,0000.0,0008.83,0005.43,0004.75
2022-07-17 00:17:00,,0829.5,5.01,0.00,29.4,28.3,00.0,38.1,31.4,27.8,0000.0,0009.04,0005.48,0004.78
2022-07-17 00:18:00,,0829.5,5.00,0.00,29.5,28.4,00.0,38.1,31.5,27.4,0000.0,0009.24,0005.55,0004.82
2022-07-17 00:19:00,,0829.4,5.01,0.00,29.5,27.9,00.0,38.1,31.5,27.9,0000.0,0009.50,0005.65,0004.85
2022-07-17 00:20:00,,0829.5,5.00,0.00,29.5,27.3,00.0,38.0,31.3,30.9,0000.0,0009.76,0005.67,0004.87
2022-07-17 00:21:00,,0829.4,5.00,0.00,29.4,27.0,00.0,38.0,31.2,31.0,0000.0,0009.80,0005.67,0004.87
2022-07-17 00:22:00,,0829.3,5.00,0.00,29.3,27.1,00.0,38.0,31.1,31.8,0000.0,0009.78,0005.66,0004.87
2022-07-17 00:23:00,,0829.3,5.00,0.00,29.3,27.2,00.0,38.0,31.1,31.5,0000.0,0009.77,0005.69,0004.90
2022-07-17 00:24:00,,0829.3,5.00,0.00,29.3,27.4,00.0,38.0,31.1,30.8,0000.0,0010.02,0005.75,0004.92
2022-07-17 00:25:00,,0829.2,5.00,0.00,29.3,27.6,00.0,38.1,31.2,31.1,0000.0,0010.10,0005.74,0004.94
2022-07-17 00:26:00,,0829.3,4.99,0.00,29.3,27.8,00.0,38.1,31.2,30.0,0000.0,0010.14,0005.79,0004.97
2022-07-17 00:27:00,,0829.3,5.00,0.00,29.3,28.0,00.0,38.1,31.3,30.1,0000.0,0010.01,0005.79,0004.99
2022-07-17 00:28:00,,0829.2,5.00,0.00,29.4,28.1,00.0,38.1,31.4,31.2,0000.0,0010.02,0005.81,0005.01
2022-07-17 00:29:00,,0829.3,5.00,0.00,29.4,28.3,00.0,38.1,31.4,29.1,0000.0,0010.24,0005.85,0005.03
2022-07-17 00:30:00,,0829.2,5.00,0.00,29.5,28.4,00.0,38.1,31.5,27.0,0000.0,0010.59,0005.79,0005.05
2022-07-17 00:31:00,,0829.2,5.00,0.00,29.5,28.1,00.0,38.1,31.5,27.0,0000.0,0010.60,0005.86,0005.06
2022-07-17 00:32:00,,0829.3,5.00,0.00,29.5,27.4,00.0,38.0,31.4,28.1,0000.0,0010.53,0005.90,0005.07
2022-07-17 00:33:00,,0829.2,5.01,0.00,29.5,27.0,00.0,38.0,31.3,29.7,0000.0,0010.55,0005.92,0005.08
2022-07-17 00:34:00,,0829.2,4.99,0.00,29.4,27.0,00.0,38.0,31.1,31.9,0000.0,0010.80,0005.94,0005.07
2022-07-17 00:35:00,,0829.1,5.00,0.00,29.3,27.1,00.0,38.0,31.1,30.0,0000.0,0010.70,0005.93,0005.06
2022-07-17 00:36:00,,0829.1,5.00,0.00,29.3,27.3,00.0,38.0,31.1,30.8,0000.0,0010.72,0005.93,0005.07
2022-07-17 00:37:00,,0829.1,5.00,0.00,29.3,27.5,00.0,38.0,31.2,31.1,0000.0,0010.77,0005.93,0005.05
2022-07-17 00:38:00,,0829.0,5.01,0.00,29.3,27.7,00.0,38.1,31.2,31.2,0000.0,0011.12,0005.92,0005.03
2022-07-17 00:39:00,,0829.0,4.99,0.00,29.3,27.9,00.0,38.1,31.3,31.4,0000.0,0011.22,0005.92,0005.02
2022-07-17 00:40:00,,0829.1,5.01,0.00,29.4,28.1,00.0,38.1,31.4,31.8,0000.0,0011.28,0005.90,0004.99
2022-07-17 00:41:00,,0829.1,4.99,0.00,29.4,28.3,00.0,38.1,31.4,31.5,0000.0,0011.23,0005.87,0004.97
2022-07-17 00:42:00,,0829.1,5.00,0.00,29.5,28.4,00.0,38.1,31.5,31.6,0000.0,0011.21,0005.83,0004.94
2022-07-17 00:43:00,,0829.0,5.00,0.00,29.5,28.3,00.0,38.1,31.5,30.6,0000.0,0011.07,0005.76,0004.92
2022-07-17 00:44:00,,0829.0,4.99,0.00,29.5,27.6,00.0,38.1,31.4,30.1,0000.0,0011.04,0005.73,0004.90
2022-07-17 00:45:00,,0829.0,5.01,0.00,29.5,27.2,00.0,38.0,31.3,30.2,0000.0,0010.97,0005.67,0004.88
2022-07-17 00:46:00,,0829.0,5.00,0.00,29.4,27.1,00.0,38.0,31.2,31.0,0000.0,0010.89,0005.62,0004.86
2022-07-17 00:47:00,,0829.0,5.00,0.00,29.4,27.2,00.0,38.0,31.1,29.0,0000.0,0011.32,0005.61,0004.85
2022-07-17 00:48:00,,0829.0,5.00,0.00,29.4,27.4,00.0,38.1,31.2,28.9,0000.0,0011.44,0005.59,0004.85
2022-07-17 00:49:00,,0829.0,5.01,0.00,29.4,27.6,00.0,38.1,31.2,29.7,0000.0,0011.14,0005.56,0004.85
2022-07-17 00:50:00,,0829.1,4.99,0.00,29.4,27.8,00.0,38.1,31.3,30.0,0000.0,0010.92,0005.56,0004.86
2022-07-17 00:51:00,,0829.0,5.01,0.00,29.4,28.0,00.0,38.1,31.3,29.2,0000.0,0010.64,0005.49,0004.86
2022-07-17 00:52:00,,0829.0,4.99,0.00,29.4,28.2,00.0,38.1,31.4,28.5,0000.0,0010.32,0005.51,0004.86
2022-07-17 00:53:00,,0829.0,5.01,0.00,29.5,28.3,00.0,38.1,31.5,28.6,0000.0,0010.25,0005.53,0004.86
2022-07-17 00:54:00,,0829.0,5.00,0.00,29.5,28.5,00.0,38.2,31.5,28.1,0000.0,0010.27,0005.55,0004.88
2022-07-17 00:55:00,,0829.0,4.99,0.00,29.6,28.2,00.0,38.1,31.6,28.6,0000.0,0010.35,0005.53,0004.88
2022-07-17 00:56:00,,0829.0,5.00,0.00,29.6,27.5,00.0,38.1,31.5,29.1,0000.0,0010.10,0005.55,0004.89
2022-07-17 00:57:00,,0829.1,5.00,0.00,29.5,27.2,00.0,38.1,31.4,28.6,0000.0,0010.03,0005.53,0004.90
2022-07-17 00:58:00,,0829.1,5.00,0.00,29.5,27.2,00.0,38.1,31.2,28.0,0000.0,0009.44,0005.52,0004.89
2022-07-17 00:59:00,,0829.1,5.00,0.00,29.4,27.3,00.0,38.1,31.2,28.1,0000.0,0009.30,0005.52,0004.88
